Regional Weather Roundup
Issued by NWS

Home | Current Version | Previous Version | Text Only | Print | Product List | Glossary Off
Versions: 1 2 3 4 5 6 7 8 9 10 11 12 13 14 15 16 17 18 19 20 21 22 23 24 25 26 27 28 29 30 31 32 33 34 35 36 37 38 39 40 41 42 43 44 45 46 47 48 49 50

000
ASUS45 KSLC 011110
RWRUT

UTAH REGIONAL WEATHER ROUNDUP
NATIONAL WEATHER SERVICE SALT LAKE CITY UT
500 AM MDT MON SEP 01 2014

UTZ001>011-023>025-011200-

NORTHERN UTAH

CITY           SKY/WX    TMP DP  RH WIND       PRES   REMARKS
HILL AFB       CLEAR     54  35  47 E15       30.03S
LOGAN          CLEAR     51  43  74 CALM      30.05R
OGDEN          CLEAR     54  34  46 S6        30.02R
PROVO AIRPORT  CLEAR     52  39  62 CALM      30.05S
SALT LAKE CITY CLEAR     57  40  52 SE8       30.00S
VERNAL         CLEAR     48  36  63 CALM      30.07S
WENDOVER       CLEAR     61  37  41 NE3       30.02S
HEBER CITY     CLEAR     39  36  87 CALM      30.11S
WEST JORDAN    CLEAR     55  45  67 SW6       30.02F

$$

UTZ012>022-026-027-011200-

SOUTHERN UTAH

CITY           SKY/WX    TMP DP  RH WIND       PRES   REMARKS
BRYCE CANYON   CLEAR     39  33  79 W8        30.21S WCI  33
CEDAR CITY     CLEAR     52  35  52 NE6       30.06S
MILFORD        CLEAR     52  37  56 S3        30.03S
MOAB/CYNLANDS  CLEAR     55  33  43 W5        29.98S
PRICE          CLEAR     52  33  48 N6        30.08F
ST GEORGE      SUNNY     68  37  32 CALM      29.89R
KANAB            N/A     52  36  54 NE5       30.08R

$$

REGIONAL REPORTS     COLORADO/ARIZONA

CITY           SKY/WX    TMP DP  RH WIND       PRES   REMARKS
CRAIG, CO      CLEAR     41  38  89 E3        30.13F
GRAND JUNCTION CLEAR     55  39  54 E3        30.02S
RIFLE          CLEAR     50  43  77 CALM      30.09S
MONTROSE       CLEAR     54  36  50 SE12      30.12S
CORTEZ         CLEAR     46  39  76 NE7       30.10R
PAGE, AZ       CLEAR     74  32  21 CALM      29.98R
GRAND CANYON     N/A    N/A N/A N/A MISG        N/A
KINGMAN        CLEAR     70  43  37 VRB3      29.93S
FLAGSTAFF      CLEAR     49  41  74 SW3       30.23S

$$

REGIONAL REPORTS    NEVADA/IDAHO/WYOMING

CITY           SKY/WX    TMP DP  RH WIND       PRES   REMARKS
LAS VEGAS, NV  CLEAR     83  28  13 S9        29.75R
ELY            CLEAR     44  33  65 S9        30.14S
ELKO           CLEAR     49  32  52 E3        30.08S
POCATELLO, ID  CLEAR     54  37  52 SW14      30.04R
BURLEY         CLEAR     47  40  76 W7        30.03R
EVANSTON, WY   CLEAR     45  30  55 S8        30.14S
ROCK SPRINGS   PTCLDY    45  32  60 S7        30.12F

$$


USA.gov is the U.S. government's official web portal to all federal, state and local government web resources and services.